CAPE
0 12 55 124 67 60 31 33 55 70 32 2 23 30 12 561 774 767 894 996 823 697 484 673 919 967 1089 875 924 1075 817 762 610 442 467 467 348 150 58 2 0 0 0 0
3 44 73 52 20 54 40 48 38 32 16 34 3 3 17 362 406 371 519 898 552 348 659 1019 1036 939 890 741 738 769 318 448 440 455 459 439 313 176 22 0 1 0 0 0
37 54 3 0 23 89 106 95 63 32 18 0 23 82 145 477 528 397 384 464 429 416 1171 948 960 995 822 736 653 605 497 621 650 628 494 350 249 179 130 20 10 0 0 0
0 5 0 0 1 10 46 55 35 16 17 17 64 0 38 327 553 621 445 603 598 538 1246 904 981 1005 786 642 529 638 606 595 756 791 615 632 368 73 2 1 8 2 0 0
2 1 1 0 0 1 0 0 0 0 0 10 3 64 113 380 341 381 551 725 578 770 1180 896 960 861 724 743 695 642 674 719 590 396 380 218 16 0 1 2 0 0 0 0
0 0 0 0 0 0 0 0 0 0 4 36 45 69 55 101 283 247 592 1003 638 926 1276 1018 1026 910 713 751 748 731 623 244 188 152 25 2 0 0 0 0 0 0 0 0
0 0 6 0 0 3 0 7 31 75 109 98 136 95 120 161 234 259 586 950 961 1246 1115 910 977 881 813 883 791 463 306 234 81 0 0 0 0 0 0 0 0 0 0 0
0 13 9 0 1 16 48 52 74 78 87 71 42 61 272 355 369 381 770 1025 1154 1094 895 743 868 590 296 421 307 40 0 0 0 0 0 0 0 0 0 0 0 0 0 0
3 26 9 45 38 20 55 31 93 41 34 114 88 182 233 261 347 477 802 907 967 816 706 198 19 0 0 0 0 0 0 0 0 0 0 0 0 0 0 0 0 0 0 0
3 0 0 1 88 50 47 94 33 71 50 39 47 74 184 229 130 376 590 789 836 655 73 0 0 0 0 0 0 0 0 0 0 0 0 0 0 0 0 0 0 0 0 0
88 116 38 6 16 59 101 83 80 81 34 48 42 67 243 107 113 175 536 695 744 461 0 0 0 0 0 0 0 0 0 0 0 0 0 0 0 0 0 0 0 0 0 0
428 224 30 0 17 51 65 87 116 101 61 94 247 64 246 172 182 216 465 750 677 333 1 0 0 0 0 0 0 0 0 0 0 0 0 0 0 0 0 0 0 0 0 0
240 10 0 0 47 57 14 53 82 108 183 39 38 60 79 226 182 129 398 619 648 263 55 2 0 0 0 0 0 0 0 0 0 0 0 0 0 0 0 0 0 0 0 0
82 184 97 24 52 40 45 34 43 78 89 105 76 37 148 52 184 110 259 498 374 186 101 31 1 0 0 9 14 9 11 10 7 0 0 0 0 0 0 0 0 0 0 0
333 267 221 72 1 1 9 28 14 39 121 80 72 59 83 51 23 12 80 316 51 68 150 78 49 41 27 31 33 32 45 46 25 0 0 0 0 0 0 0 0 0 0 0
241 145 73 16 3 0 5 15 71 64 1 51 110 136 0 0 0 18 25 7 0 75 177 123 83 75 80 58 47 39 15 8 18 0 0 0 0 0 0 0 0 0 0 0
158 66 69 33 35 18 3 55 3 0 0 2 11 2 0 0 0 0 0 6 123 66 148 222 241 161 101 49 36 14 0 2 5 5 4 0 0 0 0 0 0 0 0 0
176 173 128 100 54 20 28 20 0 0 0 0 0 0 0 0 0 0 0 1 0 0 0 14 41 23 0 0 0 0 0 3 10 8 14 14 5 1 1 6 4 13 8 6
147 153 90 78 6 4 4 29 62 20 0 0 2 0 0 0 0 0 0 0 0 0 0 0 0 0 0 0 0 3 6 6 5 3 2 0 0 0 0 19 13 1 29 42
129 154 175 67 14 13 61 26 41 26 14 0 26 35 19 2 10 0 0 0 0 0 0 0 0 0 0 0 0 0 0 2 25 41 25 11 7 1 18 58 78 8 15 26
95 67 14 57 16 27 44 167 174 107 20 19 32 9 6 5 0 0 0 0 0 0 0 0 0 7 0 0 17 26 11 0 0 0 52 77 54 61 47 37 59 55 55 34
35 3 17 5 10 30 142 137 178 22 0 0 0 0 0 0 0 0 1 4 11 13 10 12 11 0 0 0 0 0 0 0 0 0 2 2 3 20 29 62 89 91 72 45
80 25 128 34 263 323 285 304 78 0 0 0 0 0 0 4 14 23 1 0 0 0 0 0 0 0 0 0 0 0 0 0 0 0 0 0 0 0 0 0 4 41 58 31
276 185 59 91 243 282 126 65 2 0 0 0 0 0 7 31 3 0 0 0 0 0 0 0 0 0 0 0 0 0 0 0 0 0 0 0 0 0 0 0 0 0 0 0
320 248 182 124 227 0 0 0 0 0 0 0 0 0 0 0 0 0 0 1 0 0 0 0 0 0 0 0 0 0 0 0 0 0 0 0 0 0 0 0 0 0 0 0
351 262 206 137 249 23 3 0 0 0 0 7 0 0 0 0 0 0 0 0 0 0 0 0 0 0 0 0 0 0 0 0 0 0 0 0 0 0 0 0 0 0 0 0
CIN
-0 -5 -9 -4 -7 -8 -18 -7 -4 -4 -6 -40 -3 -15 -21 -30 -56 -73 -93 -111 -123 -108 -159 -173 -151 -107 -39 -34 -15 -9 -22 -26 -12 -6 -1 -2 -1 -6 -58 -12 -0 -0 -0 -0
-5 -6 -6 -4 -8 -3 -3 -1 -5 -4 -9 -20 -37 -29 -21 -34 -44 -52 -94 -123 -134 -135 -131 -125 -108 -97 -68 -45 -38 -18 -57 -26 -13 -5 -2 -1 -1 -12 -38 -14 -4 -0 -0 -0
-3 -6 -2 -0 -2 -9 -2 -4 -3 -5 -4 -1 -24 -12 -5 -35 -68 -124 -146 -133 -121 -115 -64 -99 -103 -79 -62 -40 -26 -13 -9 -8 -4 -7 -7 -7 -3 -13 -44 -3 -1 -0 -0 -0
-0 -3 -0 -0 -1 -4 -5 -5 -6 -4 -5 -6 -8 -0 -13 -8 -35 -88 -125 -131 -94 -123 -60 -94 -81 -66 -60 -47 -37 -9 -7 -8 -4 -4 -3 -2 -1 -74 -1 -1 -2 -0 -0 -0
-2 -2 -4 -0 -0 -3 -1 -0 -0 -0 -0 -4 -7 -5 -3 -24 -16 -24 -73 -86 -80 -88 -54 -90 -76 -83 -77 -25 -13 -11 -4 -2 -7 -19 -3 -8 -10 -0 -1 -1 -0 -0 -0 -0
-0 -0 -0 -0 -0 -0 -0 -0 -0 -1 -2 -5 -11 -4 -5 -6 -9 -13 -27 -69 -85 -56 -65 -102 -83 -83 -86 -23 -2 -1 -1 -40 -45 -43 -66 -3 -0 -0 -0 -0 -0 -0 -0 -0
-0 -0 -2 -0 -0 -6 -0 -5 -4 -8 -13 -11 -14 -12 -5 -5 -33 -37 -12 -29 -46 -51 -73 -89 -71 -63 -41 -2 -1 -1 -8 -26 -81 -0 -0 -0 -0 -0 -0 -0 -0 -0 -0 -0
-0 -4 -6 -0 -4 -10 -4 -3 -4 -4 -5 -5 -5 -5 -2 -35 -57 -57 -17 -9 -21 -44 -45 -37 -41 -39 -39 -14 -11 -68 -0 -0 -0 -0 -0 -0 -0 -0 -0 -0 -0 -0 -0 -0
-3 -18 -57 -45 -28 -23 -1 -5 -14 -3 -5 -4 -8 -7 -5 -22 -44 -56 -32 -33 -29 -29 -60 -79 -73 -0 -0 -0 -0 -0 -0 -0 -0 -0 -0 -0 -0 -0 -0 -0 -0 -0 -0 -0
-11 -0 -0 -3 -37 -17 -9 -9 -3 -4 -6 -6 -5 -7 -10 -3 -2 -6 -16 -25 -15 -24 -89 -0 -0 -0 -0 -0 -0 -0 -0 -0 -0 -0 -0 -0 -0 -0 -0 -0 -0 -0 -0 -0
-28 -32 -38 -12 -2 -3 -10 -7 -10 -6 -4 -3 -3 -4 -4 -7 -10 -9 -7 -22 -4 -30 -0 -0 -0 -0 -0 -0 -0 -0 -0 -0 -0 -0 -0 -0 -0 -0 -0 -0 -0 -0 -0 -0
-26 -22 -72 -0 -19 -42 -10 -1 -4 -3 -4 -7 -4 -3 -7 -21 -21 -14 -11 -2 -1 -25 -34 -0 -0 -0 -0 -0 -0 -0 -0 -0 -0 -0 -0 -0 -0 -0 -0 -0 -0 -0 -0 -0
-50 -38 -0 -0 -8 -31 -7 -1 -2 -1 -1 -2 -2 -4 -5 -9 -16 -11 -1 -1 -2 -10 -15 -16 -0 -0 -0 -0 -0 -0 -0 -0 -0 -0 -0 -0 -0 -0 -0 -0 -0 -0 -0 -0
-60 -66 -35 -7 -12 -14 -19 -12 -10 -4 -2 -2 -1 -18 -2 -39 -6 -9 -4 -1 -2 -25 -25 -7 -2 -0 -0 -17 -17 -14 -13 -9 -10 -0 -0 -0 -0 -0 -0 -0 -0 -0 -0 -0
-46 -30 -10 -21 -7 -8 -47 -34 -4 -14 -1 -1 -4 -3 -29 -37 -72 -60 -5 -13 -26 -24 -2 -1 -2 -1 -3 -25 -26 -19 -13 -9 -16 -0 -0 -0 -0 -0 -0 -0 -0 -0 -0 -0
-63 -44 -74 -83 -52 -1 -2 -42 -8 -14 -0 -3 -2 -1 -0 -0 -0 -17 -9 -17 -0 -15 -1 -0 -1 -5 -10 -8 -5 -10 -24 -12 -26 -0 -0 -0 -0 -0 -0 -0 -0 -0 -0 -0
-44 -69 -61 -43 -52 -58 -6 -21 -1 -0 -0 -1 -1 -0 -0 -0 -0 -0 -0 -13 -2 -0 -1 -2 -4 -9 -3 -3 -17 -17 -0 -10 -27 -30 -21 -0 -0 -0 -0 -0 -0 -0 -0 -0
-28 -22 -19 -15 -19 -9 -18 -29 -0 -0 -0 -0 -0 -0 -0 -0 -0 -0 -0 -2 -0 -0 -0 -40 -24 -4 -0 -0 -0 -0 -0 -16 -21 -32 -22 -19 -16 -18 -32 -47 -51 -39 -11 -20
-57 -23 -24 -5 -1 -1 -2 -2 -2 -4 -0 -0 -17 -0 -0 -0 -0 -0 -0 -0 -0 -0 -0 -0 -0 -0 -0 -0 -0 -26 -27 -21 -31 -45 -64 -0 -0 -0 -0 -39 -75 -30 -36 -25
-57 -39 -2 -7 -1 -1 -1 -14 -8 -3 -1 -0 -1 -1 -6 -1 -12 -1 -0 -0 -0 -0 -0 -0 -0 -0 -0 -0 -0 -6 -4 -27 -45 -66 -80 -100 -107 -27 -96 -43 -52 -109 -83 -53
-20 -24 -25 -4 -2 -2 -10 -6 -5 -1 -3 -1 -1 -1 -1 -3 -0 -0 -0 -0 -0 -0 -0 -0 -17 -123 -0 -0 -133 -124 -96 -0 -0 -5 -76 -65 -76 -63 -58 -66 -52 -55 -61 -74
-28 -1 -10 -2 -1 -1 -22 -8 -1 -15 -0 -0 -0 -0 -0 -0 -0 -0 -37 -85 -102 -110 -107 -101 -83 -0 -0 -0 -0 -0 -0 -0 -0 -0 -1 -1 -7 -54 -47 -37 -30 -35 -41 -73
-11 -25 -2 -4 -2 -33 -27 -13 -29 -0 -0 -0 -0 -0 -0 -17 -38 -63 -10 -0 -0 -0 -0 -0 -0 -0 -0 -0 -0 -0 -0 -0 -0 -0 -0 -0 -0 -0 -0 -0 -3 -14 -9 -17
-21 -51 -13 -9 -8 -14 -38 -25 -29 -0 -0 -0 -0 -0 -24 -42 -41 -0 -0 -0 -0 -0 -0 -0 -0 -0 -0 -0 -0 -0 -0 -0 -0 -0 -0 -0 -0 -0 -0 -0 -0 -0 -0 -0
-15 -36 -8 -9 -13 -0 -0 -0 -0 -0 -0 -6 -0 -0 -0 -0 -0 -0 -0 -0 -0 -0 -0 -0 -0 -0 -0 -0 -0 -0 -0 -0 -0 -0 -0 -0 -0 -0 -0 -0 -0 -0 -1 -0
-15 -5 -5 -3 -3 -18 -0 -0 -0 -60 -0 -45 -0 -0 -0 -0 -0 -0 -0 -0 -0 -0 -0 -0 -0 -0 -0 -0 -0 -0 -0 -0 -0 -0 -0 -0 -0 -0 -0 -0 -0 -0 -0 -0
Wind_Speed
11 9 5 24 23 25 25 25 25 20 20 20 27 25 21 12 14 13 12 11 14 13 14 16 17 17 16 15 13 12 12 12 13 13 12 11 11 12 13 14 15 16 18 20
13 12 12 7 9 2 12 16 17 20 19 21 28 28 24 12 11 15 13 13 12 10 12 14 17 17 17 15 13 12 12 13 14 14 15 16 14 14 13 13 15 17 19 21
14 13 8 8 14 14 13 10 9 30 34 17 10 12 14 12 10 13 11 11 10 9 10 13 15 16 16 16 14 12 12 13 15 16 15 15 14 14 13 14 16 18 20 21
9 7 8 9 8 9 11 4 9 5 6 14 26 28 31 17 15 11 10 8 7 8 9 11 13 15 16 15 13 12 12 13 15 15 16 15 16 15 16 16 17 17 19 19
7 8 5 4 9 11 12 6 5 10 11 22 19 10 18 17 20 17 11 9 7 6 8 10 12 14 15 14 13 12 12 13 14 16 16 15 15 16 16 17 17 18 18 19
10 17 1 9 8 6 6 5 7 9 10 11 21 25 27 29 30 28 9 8 5 5 7 9 11 13 14 14 12 12 13 14 14 15 15 16 16 17 17 17 17 18 19 19
4 1 3 9 4 7 10 8 8 7 6 18 20 29 34 33 27 22 9 6 5 5 7 8 10 12 14 14 12 12 12 14 13 14 15 16 16 17 17 17 19 20 20 20
3 11 14 14 14 17 16 16 10 12 11 18 37 31 26 25 22 19 12 6 6 6 7 8 10 12 13 13 12 12 12 13 13 13 15 16 16 18 19 20 21 19 19 20
24 10 18 16 17 15 17 14 20 20 10 10 15 22 19 17 18 14 9 7 6 6 7 10 11 12 12 12 11 12 12 13 13 14 15 16 17 18 20 19 18 19 19 21
21 7 14 18 16 11 10 18 18 14 13 11 24 25 25 16 23 14 8 6 5 6 8 9 11 12 12 12 12 12 13 14 15 15 16 16 17 18 19 17 18 20 21 20
22 17 20 14 11 13 13 7 9 16 16 11 15 26 17 22 24 23 8 4 6 7 7 9 12 12 11 11 11 11 12 14 16 16 17 17 18 20 19 18 19 20 20 20
21 22 26 13 19 17 16 16 24 15 12 11 23 35 18 18 21 22 13 5 7 8 7 10 11 12 11 11 11 12 14 16 17 17 16 17 19 21 19 19 21 21 20 21
20 18 28 23 15 15 16 16 12 13 16 9 15 26 17 21 24 21 10 4 5 7 7 8 10 10 11 11 13 14 15 17 19 18 17 18 21 22 20 19 21 21 20 21
18 16 17 21 28 20 15 14 14 13 11 4 19 33 33 23 22 20 12 3 3 4 5 7 8 10 12 14 15 15 16 17 19 19 19 21 23 23 21 20 21 21 20 21
17 20 21 20 19 17 14 13 11 3 3 4 12 5 29 29 24 25 18 7 10 5 6 6 7 11 14 14 14 13 16 17 18 18 19 22 23 23 22 22 21 22 21 20
16 20 24 25 18 17 17 19 22 16 20 20 24 18 25 24 19 17 9 6 6 8 8 11 11 11 12 13 13 15 17 17 16 16 19 22 23 24 25 25 23 23 22 22
18 23 24 22 18 18 14 25 20 19 24 22 20 23 21 19 18 16 17 16 14 15 17 17 13 13 15 17 18 18 17 16 16 17 20 23 25 26 27 27 27 27 27 24
19 19 17 21 19 18 17 19 17 20 20 19 19 18 17 18 17 19 18 15 21 18 16 15 15 15 15 18 19 17 17 17 18 21 21 22 25 27 28 26 25 25 25 26
16 17 18 20 19 17 16 16 12 15 19 18 20 18 17 17 17 18 16 17 17 19 18 18 17 16 17 20 21 20 20 19 20 22 23 23 24 26 30 31 29 25 25 25
14 15 15 17 17 18 17 16 15 14 19 14 16 16 14 14 18 20 18 19 20 20 21 20 19 19 20 20 21 21 20 21 23 25 27 25 25 26 28 25 32 27 24 25
15 16 15 16 16 14 14 14 13 14 17 15 13 17 18 18 18 18 19 21 21 21 21 20 19 20 22 23 22 23 25 27 27 26 25 28 29 28 26 28 27 25 25 25
17 18 17 16 14 12 11 11 13 16 14 15 16 16 16 17 18 19 20 21 22 22 23 21 20 21 23 25 24 25 27 29 30 28 28 29 31 31 31 30 28 27 27 26
18 16 19 14 18 14 12 11 12 11 12 13 13 13 15 17 19 20 20 22 22 23 23 22 22 22 24 25 26 27 29 31 31 31 31 31 32 33 32 33 34 32 31 28
15 12 13 16 11 11 9 8 8 8 11 12 13 13 14 16 18 20 20 22 23 24 23 23 23 25 26 27 28 29 31 33 33 34 34 34 35 35 33 31 32 33 33 33
20 11 14 11 12 11 10 8 7 9 10 11 13 13 15 16 18 19 20 22 22 23 24 25 25 26 28 29 31 33 34 35 36 36 36 37 37 37 36 34 34 33 30 31
13 15 12 15 13 7 7 8 6 6 9 9 12 13 15 16 18 19 21 22 23 24 25 27 28 28 29 30 32 33 35 36 37 37 36 37 38 37 36 37 36 32 31 31
Wind_Direction
138 157 132 310 297 300 307 314 320 334 342 338 325 328 335 340 333 335 336 348 346 357 5 6 13 17 12 8 17 31 41 44 37 29 27 25 21 16 15 9 1 359 2 358
158 180 187 36 189 70 352 345 345 341 346 338 326 326 329 341 345 331 327 328 344 1 6 7 13 20 13 15 17 28 35 32 25 20 14 7 11 11 13 13 13 3 1 358
192 202 66 180 209 204 209 214 335 304 308 339 334 341 341 354 351 344 345 344 352 3 14 11 14 17 17 9 18 26 31 24 16 12 16 15 16 17 19 18 10 6 5 3
168 158 165 190 186 200 218 218 240 271 275 250 328 264 317 336 340 338 330 333 344 357 12 13 16 19 8 8 20 30 31 19 11 14 13 10 4 9 8 11 9 12 11 12
147 89 139 174 212 216 237 235 302 338 321 329 332 323 340 345 335 329 328 327 333 355 5 8 7 22 16 17 20 24 25 17 15 13 16 22 15 17 12 13 15 14 16 17
209 227 49 223 223 240 337 282 287 308 316 323 326 324 324 327 326 328 342 341 351 5 0 8 7 21 15 26 25 21 21 16 15 17 26 22 15 10 13 14 14 13 12 14
177 136 32 7 338 2 357 345 314 302 303 335 336 320 313 319 329 331 345 357 8 18 11 11 14 8 6 11 23 21 17 14 22 28 27 26 21 21 18 16 8 8 11 13
226 355 7 11 4 350 347 346 335 315 319 317 310 319 328 334 341 344 353 11 22 25 19 17 19 9 8 16 25 25 24 23 25 28 27 24 22 12 9 8 5 12 15 15
324 346 355 352 346 349 346 339 341 333 297 325 338 331 345 350 353 0 5 4 10 24 26 15 22 16 19 19 24 23 21 18 19 16 12 10 10 6 1 9 14 13 16 12
333 281 348 346 349 342 330 340 332 337 340 329 324 322 324 348 342 1 354 358 36 63 58 37 28 29 26 26 28 20 10 6 2 0 359 2 6 5 2 10 8 6 7 12
334 344 343 353 346 342 344 331 350 341 333 311 321 318 340 334 330 333 11 52 93 94 66 52 35 41 45 35 30 26 14 2 354 352 353 356 356 354 357 359 360 2 3 8
343 336 329 333 340 347 339 327 320 316 316 323 320 293 336 335 332 338 352 16 98 100 84 46 46 50 50 38 27 18 4 353 349 351 351 351 350 349 350 350 351 355 358 3
347 347 330 341 358 5 354 351 345 328 327 276 240 305 331 326 323 334 345 46 91 99 74 41 42 39 30 23 11 3 356 349 344 344 346 345 343 344 345 347 348 350 354 357
348 345 339 336 333 346 344 344 352 345 334 288 315 297 300 322 326 328 329 9 58 16 25 37 35 17 9 1 357 357 352 348 344 342 339 336 337 338 341 342 343 346 350 351
353 340 341 343 347 349 347 348 352 319 284 269 241 319 310 314 308 300 307 330 327 9 350 31 30 7 354 355 0 3 356 352 349 345 341 336 334 338 340 339 341 342 341 346
359 344 343 342 1 5 5 4 349 6 357 345 328 338 326 323 334 319 350 353 349 335 356 349 357 5 5 3 4 2 359 359 0 356 349 343 339 338 338 337 338 336 339 338
349 344 346 347 5 4 18 355 10 7 351 350 340 330 337 347 6 354 333 330 339 331 336 343 357 358 356 358 359 357 359 2 2 357 350 345 340 337 336 336 335 333 331 334
344 356 6 354 7 6 11 16 23 18 15 17 356 4 356 359 348 7 337 327 310 353 4 9 8 14 13 5 3 5 4 358 354 350 348 345 340 335 333 334 335 335 334 330
3 3 359 358 3 12 29 30 52 35 31 39 41 37 48 45 14 343 45 36 28 22 21 14 16 23 19 9 2 360 357 355 353 349 343 340 338 335 327 321 325 327 330 331
4 8 8 6 2 3 12 25 41 53 19 62 51 51 48 50 27 24 38 35 28 22 14 11 10 12 8 5 2 1 1 356 351 349 343 342 340 335 336 331 324 325 324 324
352 355 356 0 0 14 25 33 43 25 13 36 55 37 30 25 16 23 24 16 14 13 13 17 18 11 4 1 3 359 355 350 348 348 349 346 345 341 338 335 335 332 328 325
343 344 351 357 2 6 35 35 21 14 27 19 28 36 32 29 24 19 16 12 9 8 9 13 11 7 3 359 358 355 351 349 348 349 347 346 344 342 339 337 336 334 332 329
337 346 343 359 352 6 12 15 20 31 29 28 27 24 15 18 20 19 14 14 12 13 13 13 11 6 2 359 355 350 347 345 344 343 342 342 341 339 338 334 330 330 331 330
336 355 0 358 15 5 14 29 30 40 15 20 14 14 18 12 15 12 12 10 8 9 9 9 6 1 357 355 352 349 345 342 340 337 336 336 335 334 334 333 331 327 328 326
323 357 348 355 1 14 6 32 35 25 22 23 12 4 10 14 12 9 11 9 7 4 3 4 1 357 353 349 346 344 342 340 337 334 333 332 330 329 328 328 327 326 327 327
335 340 347 346 355 14 15 10 34 28 11 354 349 353 359 2 1 359 0 1 1 360 1 358 356 354 352 349 347 345 344 341 338 336 334 333 331 330 328 326 325 326 324 322